Orbital Elements at Epoch 2459000.5 (2020-May-31.0) TDB
Reference: JPL 25 (heliocentric ecliptic J2000)
Element | Value | Uncertainty (1-sigma) | Units |
e | .0748658021665119 | 4.6916e-08 | |
a | 2.255887330497966 | 8.1382e-09 | au |
q | 2.086998515902965 | 1.0795e-07 | au |
i | 10.38044051799576 | 5.5208e-06 | deg |
node | 304.849821758971 | 2.1936e-05 | deg |
peri | 153.5686000775412 | 4.1824e-05 | deg |
M | 321.6932547699766 | 3.6023e-05 | deg |
tp | 2459132.188329070604 (2020-Oct-09.68832907) | 0.00012408 | TDB |
period | 1237.583568657276 3.39 | 6.6969e-06 1.834e-08 | d yr |
n | .2908894470783774 | 1.5741e-09 | deg/d |
Q | 2.424776145092967 | 8.7474e-09 | au |
|
| | Orbit Determination Parameters
Additional Information
|